User: anonymous   Login
Location: Unspecified
(0.0000°N, 0.0000°E)
Time: 18:05:01
(UTC+00:00)
Language:

STARLINK-36259 - Orbit

View from above orbital plane
View from above orbital plane
View from above satellite
View from above satellite

Ground track
Ground track

The orbit is defined by the following mean orbital elements,

1 67106U          26145.21627420 +.00000000 +00000-0 +57647-3 0 00007
2 67106  42.9993  96.4955 0001060 266.2729  93.8001 15.27602320    06
Epoch (UTC): 25 May 2026 05:11:26
Eccentricity: 0.0001060
inclination: 42.9993°
perigee height: 482 km
apogee height: 484 km
right ascension of ascending node: 96.4955°
argument of perigee: 266.2729°
revolutions per day: 15.27602320
mean anomaly at epoch: 93.8001°

The dashed part of the orbit path shows where the satellite is in the earth's shadow,  

DLR